GLOBALSTAR M086

Last updated on Sat Sep 05 2026 00:03:16 GMT+0000 (Coordinated Universal Time)

1 38045U 11080F 26247.27300197 -.00000104 00000+0 -23083-5 0 9997 2 38045 51.9888 87.5511 0000733 184.8474 347.6110 12.62288987679644
UTC large
Height (km)
Speed (km/s)
/
Latitude / Longitude
Inclination (degrees)
Orbital Period (minutes)
Azimuth
Elevation
Range (km)
Doppler Factor

Next 0 passes for location: London (51.5072 / 0.1276)

No passes found over London.
GLOBALSTAR M086